AirNav   ProFlight Series 2 Aviation Headset
 
 838 users online  

6M2 Horseshoe Bend Airport
Horseshoe Bend, Arkansas, USA

GOING TO HORSESHOE BEND?


FAA INFORMATION EFFECTIVE 18 JUNE 2020

Location

FAA Identifier: 6M2
Lat/Long: 36-13-16.9010N 091-45-19.7060W
36-13.281683N 091-45.328433W
36.2213614,-91.7554739
(estimated)
Elevation: 781.8 ft. / 238 m (estimated)
Variation: 00E (2020)
From city: 1 mile NE of HORSESHOE BEND, AR
Time zone: UTC -5 (UTC -6 during Standard Time)
Zip code: 72512

Airport Operations

Airport use: Open to the public
Activation date: 08/1964
Control tower: no
ARTCC: MEMPHIS CENTER
FSS: JONESBORO FLIGHT SERVICE STATION
NOTAMs facility: JBR (NOTAM-D service available)
Attendance: UNATNDD
Wind indicator: lighted
Segmented circle: yes
Lights: DUSK-DAWN ACTVT PAPI RWY 31; MIRL RWY 13/31 - CTAF.
Beacon: white-green (lighted land airport)
Operates sunset to sunrise.

Airport Communications

CTAF/UNICOM: 122.8
  • APCH/DEP SVC PRVDD BY MEMPHIS ARTCC (ZME) ON 120.075/289.4 (WALNUT RIDGE RCAG).

Nearby radio navigation aids

VOR radial/distance  VOR name  Freq  Var
ARGr276/39.4WALNUT RIDGE VORTAC114.5004E

Airport Services

Fuel available: 100LL
SELF SERVE FUEL H24 WITH CREDIT CARD.
Parking: hangars and tiedowns

Runway Information

Runway 13/31

Dimensions: 4502 x 60 ft. / 1372 x 18 m
Surface: asphalt, in good condition
Weight bearing capacity: 
Single wheel: 4.0
Runway edge lights: medium intensity
RUNWAY 13  RUNWAY 31
Latitude: 36-13.496693N36-13.066657N
Longitude: 091-45.701503W091-44.955412W
Elevation: 781.8 ft.777.4 ft.
Traffic pattern: leftleft
Runway heading: 125305
Displaced threshold: 994 ft.no
Markings: basic, in good conditionnonprecision, in good condition
Visual slope indicator: 2-light PAPI on left (3.00 degrees glide path)
Touchdown point: yes, no lightsyes, no lights
Obstructions: 110 ft. trees, 1200 ft. from runway, 9:1 slope to clear
RAPIDLY RISING TRRN WITH TREES FNA RWY 13. TRRN RISES 681 FT BTN 200-1100 FT FM RWY END.
32 ft. tree, 400 ft. from runway, 225 ft. right of centerline, 6:1 slope to clear

Airport Ownership and Management from official FAA records

Ownership: Publicly-owned
Owner: CITY OF HORSEHOE BEND
CITY HALL - 704 W COMMERCE
HORSESHOE BEND, AR 72512
Phone 870-670-5113
Manager: DOUGLAS WENDLING
704 W COMMERCE
HORSESHOE BEND, AR 72512
Phone 623-414-6337

Airport Operational Statistics

Aircraft based on the field: 11
Single engine airplanes: 11
    
Aircraft operations: avg 123/week *
55% transient general aviation
39% local general aviation
6% military
* for 12-month period ending 31 December 2019

Additional Remarks

RWY 13 TKOF RCMDD DUE TO RAPIDLY RISING TRRN NW OF ARPT.
DEER ON & INVOF ARPT.
FOR CD CTC MEMPHIS ARTCC AT 901-368-8453.

Instrument Procedures

NOTE: All procedures below are presented as PDF files. If you need a reader for these files, you should download the free Adobe Reader.

NOT FOR NAVIGATION. Please procure official charts for flight.
FAA instrument procedures published for use from 18 June 2020 at 0901Z to 16 July 2020 at 0900Z.

 
IAPs - Instrument Approach Procedures
RNAV (GPS)-A   download (173KB)
NOTE: Special Take-Off Minimums/Departure Procedures apply   download (210KB)

Other nearby airports with instrument procedures:

KCVK - Sharp County Regional Airport (10 nm E)
42A - Melbourne Municipal Airport - John E Miller Field (10 nm S)
7M2 - Mountain View Airport-Wilcox Memorial Field (27 nm SW)
KBVX - Batesville Regional Airport (30 nm S)
KBPK - Baxter County Airport (36 nm W)
 
Loc | Ops | Rwys | IFR | FBO | Links
Com | Nav | Svcs | Stats | Notes
Area around 6M2 (Horseshoe Bend Airport)
 
Road maps at: MapQuest Bing Google
 
Aerial photo
WARNING: Photo may not be current or correct
Aerial photo of 6M2 (Horseshoe Bend Airport)
Photo courtesy of the Arkansas Department of Aeronautics
Taken in the Spring of 2007

Do you have a better or more recent aerial photo of Horseshoe Bend Airport that you would like to share? If so, please send us your photo.

 
Sectional chart

 
Airport distance calculator
Flying to Horseshoe Bend Airport? Find the distance to fly.

From to 6M2

Sunrise and sunset
Times for 03-Jul-2020
 Local
(UTC-5)
 Zulu
(UTC)
Morning civil twilight05:2610:26
Sunrise05:5610:56
Sunset20:2701:27
Evening civil twilight20:5701:57

Current date and time
Zulu (UTC)  03-Jul-2020 13:28:34
Local (UTC-5)  03-Jul-2020 08:28:34
 
METAR
KBVX 
31nm S 
031256Z AUTO 29004KT 10SM CLR 23/22 A3001 RMK AO2 SLP158 T02330222
KFLP 
35nm W 
031256Z AUTO 24007KT 10SM CLR 23/21 A3004 RMK AO2 SLP164 T02330206 PNO $
KBPK 
35nm W 
031253Z AUTO VRB03KT 10SM SCT003 22/20 A3003 RMK AO2 SLP161 T02170200
KUNO 
40nm N 
031311Z AUTO 00000KT 8SM FEW002 23/22 A3003 RMK AO2 T02280217
KARG 
41nm E 
031256Z AUTO 03003KT 10SM CLR 26/23 A2999 RMK AO2 SLP155 T02560233 PNO $
KM19 
45nm SE 
031256Z AUTO 02004KT 10SM CLR 24/23 A2999 RMK AO2 SLP152 T02440228
TAF
KBPK 
35nm W 
031157Z 0312/0412 00000KT 3SM BR SCT002 BKN040 TEMPO 0312/0315 1SM BR BKN002 FM031800 VRB05KT P6SM VCSH SCT050 PROB30 0323/0403 5SM -TSRA BR OVC050CB
NOTAMs
Click for the latest NOTAMs
NOTAMs are issued by the DoD/FAA and will open in a separate window not controlled by AirNav.

 

 
 

FBO, Fuel Providers, and Aircraft Ground Support

  
 Business Name 
 
 Contact 
 
 Services / Description 
 
Fuel Prices
 
Comments
  
City of Horseshoe Bend 870-670-5113 Airport management, Aviation fuel, Aircraft parking (ramp or tiedown), Hangar leasing / sales, Pilots lounge / snooze room, Public telephone, Restrooms

More info about City of Horseshoe Bend
Phillips 66
100LL
SS $4.25 
 Updated 24-Jun-2020
 
   1 read write
SS=Self service
Update Fuel Prices
 

Where to Stay: Hotels, Motels, Resorts, B&Bs, Campgrounds

 The hotels featured here are reported to be very convenient to the Horseshoe Bend Airport. If your hotel/inn/B&B/resort is near the Horseshoe Bend Airport, provides convenient transportation, or is otherwise attractive to pilots, flight crews, and airport users, consider listing it here.
  
 Business Name 
 
 Contact 
 
 Services / Description 
 
Distance
 
Comments
  
 Cedar Glade Resort
870-670-5141
[web site]
[email]

Like us on facebook
Internet access, Restaurant, Lodging, Resort, Other business
 
Wireless Internet Access (WiFi)  
 
More info about Cedar Glade Resort
0.5 miles  
   write
Feature A Hotel
 

Would you like to see your business listed on this page?

 If your business provides an interesting product or service to pilots, flight crews, aircraft, or users of the Horseshoe Bend Airport, you should consider listing it here.  To start the listing process, click on the button below
 
Add a business
 

Other Pages about Horseshoe Bend Airport

Update a link
 
Copyright © AirNav, LLC. All rights reserved. Privacy Policy  Contact